Время (UTC), дата Ветер
(°,м/с) 
Видим.   Явления Облачность Т
(°С)
Тd
(°С)
f(%) Тe
(°С)
Pmin
(гПа)
dP
(гПа)
Po
(мм)
O2
(г/м3)
Тmin Tmax R s Состояние
почвы
00 01.02.10 тихо ()   10 км    6/0 верхняя 
[Ci fib]
-16.4 -18.3 85 -16  1032.1  0.5  762  328           
03 01.02.10 100 (В) 10 км    3/0 средняя 
[Ac cast]
-16.9 -18.8 85 -17  1032.3  0.2  762  329           
06 01.02.10 090 (В) >10 км    10/0 средняя, верхняя 
[Ac cast|Ci fib]
-16.1 -18 86 -18  1032.7  0.4  762  328  -19         
09 01.02.10 090 (В) >10 км    10/0 средняя 
[Ac As]
-10.8 -12.8 85 -13  1033.3  0.9  763  321           
12 01.02.10 100 (В) >10 км    10/0 средняя 
[As op]
-10.4 -13.2 80 -12  1032.8  -0.5  763  321           
15 01.02.10 100 (В) 10 км    3/0 средняя 
[As op]
-11.4 -13.4 85 -13  1032.7  -0.1  763  322           
18 01.02.10 090 (В) 10 км    9/0 средняя 
[Ac lent]
-11.8 -13.8 85 -16  1032.9  0.2  763  322    -10       
21 01.02.10 090 (В) 10 км    10/0 верхняя 
[Cs]
-13 -15 85 -16  1033.1  0.1  763  324           
00 02.02.10 080 (В) 10 км    10/0 верхняя 
[Cs]
-13.1 -15.1 85 -17  1032.5  -0.6  762  324           
03 02.02.10 090 (В) 10 км    10/0 верхняя 
[Cs]
-14.6 -16.6 84 -18  1032.4  -0.2  762  326           
06 02.02.10 100 (В) 4000 м  снежные зёрна  10/10 200 м 
[St]
-11.6 -13.6 85 -14  1032.3  0.1  762  322  -14.7         
09 02.02.10 100 (В) >10 км  {снег}  10/0 верхняя 
[Ci fib]
-9.9 -12.5 81 -13  1032.2  0.1  762  320           
12 02.02.10 100 (В) >10 км  {снег}  10/0 верхняя 
[Cs]
-8 -11.2 78 -11  1032.1  762  318           
15 02.02.10 090 (В) 10 км    10/0 верхняя 
[Cs]
-10.3 -13.1 80 -13  1032.9  0.5  763  321           
18 02.02.10 100 (В) 10 км    10/0 верхняя 
[Cs]
-11.5 -14.3 80 -15  1033.7  0.8  763  322    -8  0.0     
21 02.02.10 100 (В) 10 км    10/0 верхняя 
[Cs]
-11.3 -14.1 80 -13  1034  0.3  764  322           
00 03.02.10 100 (В) 10 км    10/0 верхняя 
[Cs]
-12.8 -15.5 80 -15  1035.2  764  324           
03 03.02.10 100 (В) 10 км    10/0 верхняя 
[Cs]
-13.2 -15.9 80 -17  1036  0.8  765  325           
06 03.02.10 100 (В) 10 км    10/0 верхняя 
[Ci fib]
-14.2 -16.9 80 -16  1037  0.9  766  327  -14.4         
09 03.02.10 100 (В) >10 км    10/0 верхняя 
[Ci fib]
-12 -16.4 70 -12  1038.1  1.4  767  325           
12 03.02.10 100 (В) >10 км    10/0 верхняя 
[Ci fib]
-11.8 -17 65 -12  1039.1  0.9  767  325           
15 03.02.10 100 (В) 10 км    10/0 верхняя 
[Ci fib]
-12.6 -17.8 65 -15  1040.5  1.3  768  326           
18 03.02.10 090 (В) 10 км    10/0 верхняя 
[Ci fib]
-15.2 -18.6 75 -20  1042.1  1.4  769  330    -10.1       
21 03.02.10 100 (В) 10 км    ясно 
-16.8 -20.2 75 -21  1043.7  1.5  770  332           
00 04.02.10 100 (В) 10 км    5/0 верхняя 
[Ci fib]
-17.6 -21 75 -22  1045.8  772  334           
03 04.02.10 100 (В) 10 км    5/0 верхняя 
[Ci fib]
-18.1 -21.4 76 -21  1047.1  1.2  773  335           
06 04.02.10 090 (В) >10 км    ясно 
-17.9 -21.2 75 -18  1049.1  2.1  774  336  -18.1         
09 04.02.10 140 (ЮВ) >10 км    ясно 
-12.1 -19.3 55 -15  1050.3  1.5  776  329           
12 04.02.10 070 (В) >10 км    ясно 
-11 -18.3 55 -11  1050.8  0.5  776  327           
15 04.02.10 тихо ()   10 км    ясно 
-14.6 -18.9 70 -15  1051.7  0.7  776  332           
18 04.02.10 тихо ()   10 км    ясно 
-17.5 -20.9 75 -18  1052.6  0.8  777  336    -10.2       
21 04.02.10 тихо ()   10 км    ясно 
-19.1 -21.7 80 -19  1053  0.2  777  338           
00 05.02.10 тихо ()   10 км    ясно 
-19.4 -21.3 85 -19  1052.6  -0.4  777  339           
03 05.02.10 тихо ()   10 км    ясно 
-19.1 -21 85 -19  1052  -0.6  776  338           
06 05.02.10 350 (С) >10 км    ясно 
-18.5 -20.4 85 -19  1052.2  0.2  777  337  -19.6         
09 05.02.10 290 (З) >10 км    ясно 
-14.6 -18.1 74 -15  1051  -0.9  776  332           
12 05.02.10 290 (З) >10 км    ясно 
-11.1 -17.3 60 -11  1049.7  -1.1  775  327           
15 05.02.10 300 (СЗ) 10 км    ясно 
-13.9 -18.2 70 -14  1048.5  -1.2  774  330           
18 05.02.10 290 (З) 10 км    ясно 
-15.2 -18.6 75 -15  1047.5  -1.1  773  332    -10.9       
21 05.02.10 тихо ()   10 км    ясно 
-16.3 -19.7 75 -16  1046.7  -1  773  333           
00 06.02.10 тихо ()   10 км    ясно 
-16.9 -20.3 75 -17  1046.5  -0.2  773  333           
03 06.02.10 тихо ()   10 км    ясно 
-17.5 -20.1 80 -18  1046.1  -0.4  772  334           
06 06.02.10 тихо ()   10 км    ясно 
-19.3 -21.9 80 -19  1046.2  772  336  -19.5         
09 06.02.10 360 (С) >10 км    ясно 
-13.6 -17.9 70 -14  1045  -0.8  772  329           
12 06.02.10 310 (СЗ) >10 км    ясно 
-10.4 -16.7 60 -10  1044  -0.9  771  324           
15 06.02.10 300 (СЗ) 10 км    ясно 
-14 -18.3 70 -14  1043.9  -0.2  771  329           
18 06.02.10 330 (СЗ) 10 км    ясно 
-14.1 -18.4 70 -14  1043.4  -0.6  770  329    -10.3       
21 06.02.10 тихо ()   10 км    ясно 
-17.6 -20.2 80 -18  1042.7  -0.8  770  333           
00 07.02.10 тихо ()   10 км    ясно 
-19.6 -22.2 79 -20  1042.4  -0.4  769  336           
03 07.02.10 тихо ()   10 км    ясно 
-19.4 -22 80 -19  1042.2  -0.2  769  335           
06 07.02.10 тихо ()   >10 км    8/0 верхняя 
[Ci fib]
-20.3 -22.8 80 -20  1042.3  769  337  -22.3         
09 07.02.10 160 (Ю) >10 км    6/0 верхняя 
[Ci fib]
-15 -18.4 75 -15  1041.5  -0.5  769  329           
12 07.02.10 130 (ЮВ) >10 км    10/0 верхняя 
[Ci fib]
-14.9 -19.1 70 -17  1041.1  -0.4  769  329           
15 07.02.10 150 (ЮВ) 10 км    10/0 верхняя 
[Ci fib]
-18.9 -22.2 75 -19  1041.3  769  334           
18 07.02.10 140 (ЮВ) 10 км    ясно 
-18.1 -21.4 76 -21  1040.7  -0.5  768  333    -14.5       
21 07.02.10 140 (ЮВ) 10 км    5/0 верхняя 
[Ci fib]
-18.6 -21.2 80 -19  1040.6  -0.2  768  334           
00 08.02.10 140 (ЮВ) 10 км    5/0 верхняя 
[Ci fib]
-19.1 -21 85 -22  1040.7  0.1  768  334           
03 08.02.10 140 (ЮВ) 10 км    8/0 верхняя 
[Ci fib]
-21.1 -22.9 85 -24  1041  0.2  768  337           
06 08.02.10 150 (ЮВ) >10 км  [диам. изморози 1 мм]  8/0 верхняя 
[Ci fib]
-20.5 -22.4 85 -23  1041.5  0.5  769  337  -21.1         
09 08.02.10 160 (Ю) >10 км    6/0 верхняя 
[Ci fib]
-17.2 -20.6 75 -17  1041.8  0.5  769  332           
12 08.02.10 140 (ЮВ) >10 км    10/0 верхняя 
[Ci fib]
-15.5 -19.7 70 -18  1042  0.3  769  330           
15 08.02.10 150 (ЮВ) 10 км    10/0 средняя, верхняя 
[Ac As|Ci fib]
-15.1 -18.5 75 -17  1042.2  0.2  769  330           
18 08.02.10 140 (ЮВ) 10 км    ясно 
-15.2 -19.3 71 -15  1041.7  -0.5  769  330    -15.1       
21 08.02.10 140 (ЮВ) 10 км    10/0 средняя 
[As op]
-15.2 -18.6 75 -15  1041.8  0.1  769  330           
00 09.02.10 140 (ЮВ) 10 км    10/0 средняя 
[As op]
-14.2 -18.5 70 -16  1041.7  -0.1  769  328           
03 09.02.10 130 (ЮВ) 10 км    10/0 средняя 
[As op]
-14.9 -19.1 70 -17  1041.9  0.2  769  329           
06 09.02.10 130 (ЮВ) >10 км    10/0 средняя 
[Ac As]
-15.1 -19.3 70 -17  1042.9  770  330  -15.7         
09 09.02.10 140 (ЮВ) >10 км    10/0 средняя 
[As op]
-13.5 -17.8 70 -17  1043.9  1.1  771  328           
12 09.02.10 140 (ЮВ) >10 км    10/0 средняя 
[As op]
-12.5 -17.7 65 -16  1043.9  771  327           
15 09.02.10 140 (ЮВ) 10 км    10/0 средняя 
[As op]
-13.3 -18.5 65 -17  1044.6  0.7  771  328           
18 09.02.10 130 (ЮВ) 10 км    10/0 средняя 
[As op]
-14.2 -20.3 60 -18  1045.9  1.2  772  330    -12.3       
21 09.02.10 130 (ЮВ) 10 км    10/0 средняя 
[As op]
-15.3 -20.4 65 -19  1047  1.1  773  332           
00 10.02.10 130 (ЮВ) 10 км    ясно 
-17.2 -22.2 65 -21  1047.5  0.3  773  334           
03 10.02.10 150 (ЮВ) 10 км    ясно 
-18.7 -23.6 65 -23  1048.3  0.7  774  336           
06 10.02.10 140 (ЮВ) >10 км    10/0 верхняя 
[Ci fib]
-19.1 -24 65 -23  1049.4  775  337  -19.1         
09 10.02.10 140 (ЮВ) >10 км    10/0 верхняя 
[Ci fib]
-17.3 -24.2 55 -21  1050.6  1.4  776  335           
12 10.02.10 130 (ЮВ) >10 км    10/0 верхняя 
[Ci fib]
-14.8 -21.8 55 -17  1050.2  -0.3  775  332           
15 10.02.10 140 (ЮВ) 10 км    10/0 верхняя 
[Ci fib]
-15.9 -23.9 50 -18  1050.5  0.3  776  334           
18 10.02.10 140 (ЮВ) 10 км    ясно 
-17.5 -24.4 55 -21  1050.7  0.1  776  336    -14.7       
21 10.02.10 130 (ЮВ) 10 км    ясно 
-18.8 -25.6 55 -21  1050.8  -0.1  776  337           
00 11.02.10 140 (ЮВ) 10 км    ясно 
-19.9 -26.6 56 -23  1051.4  0.6  776  339           
03 11.02.10 160 (Ю) 10 км    ясно 
-21.5 -27.2 60 -24  1051.9  0.4  776  341  -21.5      47  равномерный
сухой снег
100% 
06 11.02.10 140 (ЮВ) >10 км    8/0 верхняя 
[Ci fib]
-21.1 -26.8 60 -26  1053  1.1  777  341  -21.6         
09 11.02.10 150 (ЮВ) >10 км    4/0 средняя, верхняя 
[Ac lent|Ci fib]
-17.9 -24.8 55 -20  1053.5  0.8  778  337           
12 11.02.10 290 (З) 98  >10 км    4/0 средняя, верхняя 
[Ac lent|Ci fib]
-17.2 -25.2 50 -39  1053.6  0.1  778  336           
15 11.02.10 140 (ЮВ) 10 км    3/0 средняя 
[Ac lent]
-18.3 -25.1 55 -19  1053.7  -0.1  778  338           
18 11.02.10 140 (ЮВ) 10 км    ясно 
-19.3 -25.1 60 -22  1053.4  -0.3  778  339    -17       
21 11.02.10 130 (ЮВ) 10 км    ясно 
-20.9 -26.6 60 -21  1053.4  -0.1  777  341           
00 12.02.10 140 (ЮВ) 10 км    ясно 
-22 -26.8 65 -22  1053  -0.4  777  342           
03 12.02.10 140 (ЮВ) 10 км    ясно 
-22.3 -26.2 70 -23  1053.1  777  343           
06 12.02.10 150 (ЮВ) >10 км    10/0 верхняя 
[Ci fib]
-21 -25.9 64 -24  1053.2  0.2  777  341  -22.4         
09 12.02.10 150 (ЮВ) >10 км    10/0 верхняя 
[Ci fib]
-17.6 -24.5 55 -20  1052.7  -0.2  777  336           
12 12.02.10 160 (Ю) >10 км    10/0 верхняя 
[Cs]
-15.8 -22.8 55 -16  1051.8  -0.8  777  334           
15 12.02.10 140 (ЮВ) 10 км    8/0 средняя, верхняя 
[As trans|Ci fib]
-15.5 -22.5 55 -16  1050.8  -1  776  333           
18 12.02.10 140 (ЮВ) 10 км    10/0 верхняя 
[Ci fib]
-16.9 -23.8 55 -19  1050.2  -0.7  775  335    -15.2       
21 12.02.10 150 (ЮВ) 10 км    10/0 верхняя 
[Cs]
-16.9 -23.8 55 -19  1049.2  -1  775  334           
00 13.02.10 130 (ЮВ) 10 км    10/0 верхняя 
[Ci fib]
-17.4 -24.3 55 -18  1049.3  0.1  775  335           
03 13.02.10 150 (ЮВ) 10 км    6/0 верхняя 
[Ci fib]
-18.3 -24.2 60 -21  1049.2  -0.3  774  336           
06 13.02.10 140 (ЮВ) >10 км    10/0 верхняя 
[Ci fib]
-17.9 -23.8 60 -20  1048  -1  774  335  -18.8         
09 13.02.10 140 (ЮВ) >10 км    9/0 верхняя 
[Ci fib]
-13.7 -23.1 45 -16  1047.4  -0.3  773  330           
12 13.02.10 130 (ЮВ) >10 км    4/0 верхняя 
[Ci fib]
-11.8 -21.3 45 -12  1046.3  -1  773  327           
15 13.02.10 140 (ЮВ) 10 км    3/0 верхняя 
[Ci fib]
-16.1 -23.1 55 -16  1045.3  -1.3  772  332           
18 13.02.10 140 (ЮВ) 10 км    ясно 
-16.1 -23.1 55 -18  1044.3  -1  771  332    -11.6       
21 13.02.10 130 (ЮВ) 10 км    ясно 
-16.8 -23.7 55 -19  1043.2  -1.1  770  332           
00 14.02.10 130 (ЮВ) 10 км    ясно 
-16.7 -23.6 55 -21  1040.8  -2.4  768  331           
03 14.02.10 140 (ЮВ) 10 км    ясно 
-17.5 -24.4 55 -20  1039.5  -1.3  767  332           
06 14.02.10 150 (ЮВ) >10 км    10/0 верхняя 
[Ci fib]
-15.9 -22.9 55 -18  1037.7  -1.6  766  329  -17.9         
09 14.02.10 150 (ЮВ) >10 км    10/0 верхняя 
[Ci fib]
-12.6 -22.1 45 -15  1036.5  -1.1  765  325           
12 14.02.10 170 (Ю) >10 км    5/0 верхняя 
[Ci fib]
-10.6 -20.2 45 -12  1034.4  -1.9  764  322           
15 14.02.10 150 (ЮВ) 10 км    5/0 верхняя 
[Ci fib]
-12.2 -21.7 45 -14  1031.5  -3  762  323           
18 14.02.10 150 (ЮВ) 10 км    ясно 
-13.6 -21.8 50 -17  1029.5  -2  760  324    -10.5       
21 14.02.10 160 (Ю) 10 км    ясно 
-15.1 -22.1 55 -19  1027.5  -2  759  325           
00 15.02.10 150 (ЮВ) 10 км    10/0 средняя 
[As op]
-13.4 -19.5 60 -17  1024.5  -2.9  756  322           
03 15.02.10 160 (Ю) 10 км    10/0 средняя 
[As op]
-12.4 -15.1 81 -16  1021.4  -3  754  320           
06 15.02.10 170 (Ю) 4000 м  слаб. снег  10/10 300 м 
[Ns]
-11.4 -13.4 85 -13  1019.2  -2.1  753  318  -16.3         
09 15.02.10 160 (Ю) 10 км  слаб. снег  10/10 300 м 
[Ns]
-10.3 -12.3 85 -13  1018  -1.1  752  316           
12 15.02.10 170 (Ю) 10 км  слаб. снег  10/10 300 м 
[Ns]
-9.6 -11.2 88 -13  1016.2  -1.7  751  315           
15 15.02.10 150 (ЮВ) 4000 м  слаб. снег  10/10 300 м 
[Ns]
-9.1 -10.6 89 -11  1015.1  -1.1  750  314           
18 15.02.10 190 (Ю) 2000 м  снег  10/10 300 м 
[Ns]
-8.8 -9.9 92 -12  1012.2  -2.8  748  312    -9.1     
21 15.02.10 170 (Ю) 10 км  {снег}  10/10 600 м 
[Sc]
-8.8 -10.3 89 -9  1011.5  -0.7  747  312           
00 16.02.10 180 (Ю) 10 км  {снег}  10/10 600 м 
[Sc]
-8.5 -10 89 -10  1010.4  -1.1  746  311           
03 16.02.10 150 (ЮВ) 10 км    10/10 300 м 
[St]
-8.7 -10.2 89 -8  1010.3  -0.1  746  312           
06 16.02.10 130 (ЮВ) 10 км    10/10 600 м 
[Sc]
-8.6 -10.1 89 -8  1010.2  -0.1  746  311  -9.1       
09 16.02.10 140 (ЮВ) >10 км    10/10 600 м 
[Sc]
-6.8 -9.2 83 -6  1009  -1.1  745  309           
12 16.02.10 090 (В) >10 км    10/10 600 м 
[Sc]
-6.4 -9.2 80 -6  1007.1  -1.8  744  308           
15 16.02.10 090 (В) 10 км    10/10 600 м 
[Sc]
-6.6 -9.4 80 -8  1006  -1.1  743  308           
18 16.02.10 060 (СВ) 10 км    10/10 600 м 
[Sc]
-7 -9.5 82 -7  1004.2  -1.8  742  308    -6.4       
21 16.02.10 350 (С) 10 км    10/10 600 м 
[Sc]
-7 -9.1 85 -8  1002.8  -1.4  741  307           
00 17.02.10 350 (С) 10 км  слаб. снег  10/10 600 м 
[Sc]
-7.2 -9.3 85 -10  1001.9  -0.8  740  307           
03 17.02.10 350 (С) 10 км  слаб. снег  10/10 600 м 
[Sc]
-7 -9.5 82 -8  1002.1  0.2  740  307           
06 17.02.10 310 (СЗ) 10 км    10/10 200 м 
[Ns]
-8.2 -10.9 81 -10  1002.3  0.2  740  309  -8.3    0.0     
09 17.02.10 300 (СЗ) >10 км  {снег}  8/8 600 м 
[Sc]
-9.2 -13.7 70 -12  1003.9  1.4  741  310           
12 17.02.10 280 (З) >10 км  слаб. снег  10/0 средняя 
[Ac cast]
-9.2 -13.7 70 -13  1004  0.1  742  310           
15 17.02.10 290 (З) 10 км  слаб. снег  8/4 600 м средняя 
[Sc|Ac cast]
-9.6 -14.8 66 -14  1006.4  2.4  743  312           
18 17.02.10 300 (СЗ) 3{10}  10 км  {снег}  4/0 средняя 
[Ac cast]
-10.4 -16.7 60 -13  1009.1  2.5  745  314    -7  0.0     
21 17.02.10 280 (З) 10 км    8/0 средняя 
[Ac cast]
-12.3 -16.6 70 -14  1011.5  2.2  747  317           
00 18.02.10 290 (З) 10 км    4/0 средняя 
[Ac cast]
-14.4 -17.1 80 -17  1013.7  748  320           
03 18.02.10 300 (СЗ) 10 км    ясно 
-16.3 -18.2 85 -19  1015.4  1.6  750  323           
06 18.02.10 290 (З) >10 км    ясно 
-17 -18.9 85 -19  1017.2  1.8  751  324  -16.3    0.0     
09 18.02.10 270 (З) >10 км    3/0 средняя 
[Ac lent]
-14.9 -18.3 75 -17  1018.3  1.1  752  322           
12 18.02.10 280 (З) >10 км    10/0 верхняя 
[Ci fib]
-12.4 -17.6 65 -14  1018.5  0.4  752  319           
15 18.02.10 230 (ЮЗ) 10 км    10/0 верхняя 
[Ci fib]
-14.3 -18.6 69 -14  1018.5  -0.1  752  321           
18 18.02.10 150 (ЮВ) 10 км    10/0 верхняя 
[Ci fib]
-15.5 -18.2 80 -16  1017.4  -1.1  751  322    -12.4       
21 18.02.10 160 (Ю) 10 км    10/0 средняя 
[Ac cast]
-15.6 -18.3 80 -16  1015.7  -1.7  750  322           
00 19.02.10 140 (ЮВ) 10 км    10/0 средняя 
[As op]
-15.5 -17.4 85 -16  1013.2  -2.4  748  321           
03 19.02.10 170 (Ю) 10 км  слаб. снег  10/0 средняя 
[As op]
-14.6 -16.6 84 -15  1010.7  -2.5  746  319           
06 19.02.10 190 (Ю) 4000 м  слаб. снег  10/0 средняя 
[As op]
-11.9 -13.9 85 -12  1010  -0.4  746  315  -15.8    0.0     
09 19.02.10 260 (З) 10 км  слаб. снег  10/0 средняя 
[As op]
-10.1 -13.7 75 -13  1009.9  746  313           
12 19.02.10 280 (З) >10 км  {снег}  6/0 средняя, верхняя 
[Ac cast|Ci fib]
-8.8 -13.2 70 -12  1009.9  746  312           
15 19.02.10 270 (З) 10 км    ясно 
-10.9 -14.5 75 -11  1011.7  1.7  747  315           
18 19.02.10 250 (З) 10 км    4/0 средняя, верхняя 
[Ac cast|Cs]
-13.5 -15.5 85 -13  1012.2  0.3  747  318    -8.5  0.4     
21 19.02.10 150 (ЮВ) 10 км    10/0 средняя 
[Ac As]
-12.8 -14.8 85 -13  1011.4  -0.8  747  317           
00 20.02.10 100 (В) 4000 м  снег  10/10 100 м 
[Ns]
-12.3 -14.3 85 -12  1009.8  -1.6  746  316           
03 20.02.10 070 (В) 4000 м  снег  10/10 200 м 
[Ns]
-12.4 -14.4 85 -16  1008.3  -1.5  744  315           
06 20.02.10 030 (СВ) 10 км  слаб. снег  10/0 средняя 
[As op]
-16.2 -18.8 80 -20  1011.2  2.7  746  321  -16.2       
09 20.02.10 030 (СВ) >10 км  {снег}  ясно 
-18.3 -22.4 70 -22  1014.5  3.1  749  325           
12 20.02.10 040 (СВ) >10 км  {снег}  3/0 верхняя 
[Ci fib]
-19.5 -25.3 60 -22  1016.5  750  327           
15 20.02.10 040 (СВ) 10 км    10/0 верхняя 
[Ci fib]
-21.5 -28.1 55 -27  1018.2  1.6  752  330           
18 20.02.10 030 (СВ) 10 км    10/0 верхняя 
[Ci fib]
-22.4 -29 55 -27  1019.4  0.9  752  332    -12.4  0.3     
21 20.02.10 050 (СВ) 10 км    10/0 средняя 
[As op]
-23.3 -29.8 55 -28  1019.3  -0.1  752  333           
00 21.02.10 090 (В) 10 км    10/0 средняя 
[As op]
-24.1 -30.7 55 -27  1020  0.6  753  334           
03 21.02.10 070 (В) 10 км    10/0 средняя 
[As op]
-24.2 -30.7 55 -27  1019.8  -0.2  752  335           
06 21.02.10 090 (В) >10 км    10/0 средняя 
[As op]
-23.9 -30.4 55 -29  1019.3  -0.4  752  334  -24.2         
09 21.02.10 080 (В) >10 км    10/0 средняя 
[Ac As]
-21.5 -30.3 45 -26  1019.1  752  331           
12 21.02.10 070 (В) >10 км    8/0 средняя 
[Ac cast]
-20 -28.9 45 -24  1018.4  -0.5  752  329           
15 21.02.10 080 (В) 10 км    1/0 средняя 
[Ac lent]
-21.2 -30 45 -26  1017.8  -0.7  751  330           
18 21.02.10 090 (В) 5{10}  10 км  позёмок  ясно 
-21.5 -29.2 50 -28  1017.2  -0.6  751  330    -19.7       
21 21.02.10 080 (В) 4{10}  10 км  позёмок  ясно 
-21.5 -29.2 50 -27  1016.6  -0.6  750  330           
00 22.02.10 080 (В) 5{11}  10 км  позёмок  ясно 
-20.5 -28.2 50 -27  1015.1  -1.5  749  328           
03 22.02.10 080 (В) 4{11}  10 км  позёмок  9/0 средняя 
[Ac und]
-20.7 -28.4 50 -26  1014.1  -1  748  328           
06 22.02.10 080 (В) 10 км    10/0 средняя 
[As op]
-20.5 -26.2 60 -25  1014.2  0.1  749  328  -21.5         
09 22.02.10 080 (В) 10 км    10/0 средняя 
[As op]
-19.2 -23.3 70 -23  1013.2  -0.8  748  326           
12 22.02.10 110 (В) 10 км    10/0 средняя 
[As op]
-16.6 -20.8 70 -20  1012.5  -0.6  747  322           
15 22.02.10 070 (В) 10 км    10/0 средняя 
[As op]
-16.4 -20.6 70 -21  1012  -0.5  747  322           
18 22.02.10 070 (В) 10 км    10/0 средняя 
[Ac As]
-14.8 -18.2 75 -19  1011.1  -0.8  746  319    -16.4       
21 22.02.10 080 (В) 4000 м  слаб. снег  10/10 200 м 
[Ns]
-12.8 -15.5 80 -16  1010.5  -0.5  746  317           
00 23.02.10 090 (В) 4000 м  слаб. снег  10/10 200 м 
[Ns]
-10.4 -12.4 85 -13  1009.4  -0.9  745  313           
03 23.02.10 130 (ЮВ) 10 км  слаб. снег  10/10 200 м 
[Ns]
-8.9 -13.8 68 -12  1008.8  -0.5  745  312           
06 23.02.10 140 (ЮВ) 4000 м  слаб. снег  10/10 200 м 
[Ns]
-9 -11 85 -12  1009.5  0.7  746  312  -16.5    0.9     
09 23.02.10 140 (ЮВ) 4000 м  слаб. снег  10/10 200 м 
[Ns]
-8.6 -10.5 86 -10  1010.7  1.2  746  312           
12 23.02.10 130 (ЮВ) 10 км  слаб. снег  10/10 300 м 
[Ns]
-7.8 -10 84 -9  1011.2  0.6  747  311           
15 23.02.10 140 (ЮВ) 4000 м  слаб. снег  10/10 300 м 
[Ns]
-8 -9.8 87 -8  1012.3  1.1  748  311           
18 23.02.10 тихо ()   4000 м  слаб. снег  10/0 средняя 
[As op]
-8 -9.8 87 -8  1013.4  749  312    -7.6     
21 23.02.10 010 (С) 2000 м  снег  10/10 200 м 
[Ns]
-7.7 -9.1 90 -7  1013.9  0.5  749  311           
00 24.02.10 010 (С) 10 км  в посл. час снег  10/0 средняя 
[Ac As]
-8.2 -9.6 89 -8  1014.1  0.2  749  312           
03 24.02.10 010 (С) 10 км  слаб. снег  10/0 средняя 
[As op]
-8 -9.8 87 -8  1014.2  0.1  749  312           
06 24.02.10 020 (С) >10 км  {снег}  8/0 средняя 
[Ac cast]
-7.7 -9.1 90 -7  1015  0.7  750  312  -8.3       
09 24.02.10 360 (С) >10 км    1/0 средняя 
[Ac cast]
-5.5 -9.3 75 -5  1014.6  -0.2  749  309           
12 24.02.10 010 (С) >10 км    1/0 средняя 
[Ac lent]
-4.5 -9.2 70 -4  1014.7  0.1  750  308           
15 24.02.10 тихо ()   10 км    1/0 средняя 
[Ac lent]
-7.2 -11.1 74 -7  1014.9  0.1  750  311           
18 24.02.10 тихо ()   10 км    3/0 средняя 
[Ac cast]
-10.8 -12.8 85 -11  1015.3  0.2  750  316    -4.5  0.0     
21 24.02.10 тихо ()   10 км    ясно 
-12.5 -13.8 90 -13  1016.4  751  318           
00 25.02.10 тихо ()   4000 м  дымка  6/0 средняя 
[Ac cast]
-13.6 -14.9 90 -14  1016.3  -0.1  750  320           
03 25.02.10 тихо ()   2000 м  дымка  10/0 средняя 
[Ac cast]
-15.4 -16.7 90 -15  1015.9  -0.6  750  322           
06 25.02.10 260 (З) 4000 м  дымка{туман} [диам. изморози 3 мм]  10/10 300 м 
[St]
-15.7 -17 90 -16  1017.8  1.9  751  323  -15.5         
09 25.02.10 250 (З) >10 км  [диам. изморози 3 мм]  8/0 средняя, верхняя 
[Ac cast|Cc]
-6 -12.3 61 -6  1017.5  0.3  752  311           
12 25.02.10 240 (ЮЗ) >10 км    10/0 средняя 
[As op]
-6.2 -10.6 71 -6  1017.5  2.2  752  311           
15 25.02.10 тихо ()   10 км  слаб. снег  10/10 600 м 
[Sc]
-7.5 -11 76 -8  1017.8  0.2  752  313           
18 25.02.10 290 (З) 10 км  {снег}  10/0 верхняя 
[Cs]
-8.8 -10.3 89 -9  1018.6  0.6  752  314    -6  0.0     
21 25.02.10 тихо ()   10 км    10/0 средняя 
[As op]
-8.2 -9.6 89 -8  1019.3  0.8  753  314           
00 26.02.10 тихо ()   10 км    10/0 средняя 
[Ac As]
-8 -9.4 90 -8  1020.3  754  314           
03 26.02.10 тихо ()   10 км    9/0 средняя 
[Ac As]
-9.4 -10.1 95 -9  1021.7  1.3  755  316           
06 26.02.10 тихо ()   4000 м  дымка  9/0 средняя 
[Ac trans]
-7.2 -8.5 90 -7  1022.6  755  313  -10.1    0.0     
09 26.02.10 240 (ЮЗ) 10 км    5/0 средняя 
[Ac trans]
-2.7 -9.3 60 -2  1023.1  0.7  756  309           
12 26.02.10 120 (ЮВ) 10 км    3/0 верхняя 
[Ci fib]
-3.5 -10.5 58 -3  1023.3  0.2  756  310           
15 26.02.10 тихо ()   10 км    5/0 средняя, верхняя 
[Ac lent|Ci fib]
-6.5 -11.1 70 -7  1023.5  756  313           
18 26.02.10 140 (ЮВ) 10 км    6/0 верхняя 
[Ci fib]
-9.2 -11.2 85 -9  1023.9  0.2  756  316    -2.5       
21 26.02.10 150 (ЮВ) 10 км    10/0 средняя, верхняя 
[Ac cast|Ci fib]
-10.7 -12 90 -11  1024  756  318           
00 27.02.10 150 (ЮВ) 10 км    10/0 средняя 
[Ac cast]
-10.2 -11.5 90 -10  1023.4  -0.5  756  317           
03 27.02.10 140 (ЮВ) 4000 м  слаб. снег  10/0 средняя 
[Ac cast]
-9.8 -11 91 -10  1022.7  -0.6  755  317           
06 27.02.10 160 (Ю) >10 км  {снег}  10/0 верхняя 
[Ci fib]
-7.9 -9.7 87 -8  1022.6  755  314  -10.8    0.4     
09 27.02.10 160 (Ю) >10 км    10/0 средняя 
[As op]
-3.5 -6.7 78 -3  1022.4  0.1  755  309           
12 27.02.10 210 (ЮЗ) >10 км    10/0 средняя 
[As op]
-1.6 -4.6 80 -3  1021.8  -0.5  755  307           
15 27.02.10 180 (Ю) 10 км    10/0 средняя 
[As op]
-2.1 -5.3 79 -2  1021.4  -0.4  755  307           
18 27.02.10 тихо ()   10 км    10/10 600 м 
[Sc]
-2.8 -5.5 82 -3  1021.5  755  308    -1.6  0.0     
21 27.02.10 230 (ЮЗ) 10 км  слаб. снег  10/10 600 м 
[Sc]
-3 -5 86 -4  1021.4  -0.1  755  308           
00 28.02.10 230 (ЮЗ) 10 км  слаб. снег  10/10 600 м 
[Sc]
-4.1 -5.7 89 -5  1021.3  -0.1  755  309           
03 28.02.10 230 (ЮЗ) 10 км  слаб. снег  10/10 600 м 
[Sc]
-4.3 -6.6 84 -6  1021.7  0.4  755  310           
06 28.02.10 240 (ЮЗ) 10 км  слаб. снег  10/10 600 м 
[Sc]
-4.6 -6.6 86 -4  1022.9  756  310  -4.6    0.4     
09 28.02.10 240 (ЮЗ) >10 км  в посл. час снег  10/10 600 м 
[Sc]
-4 -6.2 85 -4  1023.5  0.7  756  310           
12 28.02.10 240 (ЮЗ) >10 км  {снег}  9/3 600 м средняя 
[Sc|Ac cast]
-2.1 -7.1 69 -2  1023.1  -0.3  756  308           
15 28.02.10 тихо ()   10 км    9/0 средняя 
[Ac As]
-4.3 -8.5 73 -4  1023.9  0.6  756  311           
18 28.02.10 150 (ЮВ) 10 км    10/10 600 м 
[Sc]
-4.8 -6.8 86 -4  1024.8  0.9  757  311    -1.9  0.0     
21 28.02.10 130 (ЮВ) 10 км    4/4 600 м 
[Sc]
-5.9 -7.4 89 -6  1025.6  0.8  758  313           
00 01.03.10 140 (ЮВ) 10 км    ясно 
-9.4 -11 88 -9  1026.3  0.4  758  317           
03 01.03.10 130 (ЮВ) 10 км    3/0 средняя 
[Ac lent]
-11 -13 85 -13  1026.4  758  319           
06 01.03.10 140 (ЮВ) >10 км    6/0 верхняя 
[Ci fib]
-11 -13.8 80 -13  1027.1  -0.7  758  320  -12.1         
09 01.03.10 150 (ЮВ) >10 км    10/0 верхняя 
[Cs]
-8.8 -3.2 100 -10  1027.2  0.2  759  316           
12 01.03.10 150 (ЮВ) >10 км    10/0 верхняя 
[Cs]
-7.9 -12.5 69 -9  1026.8  -0.2  758  316           
15 01.03.10 150 (ЮВ) 10 км    10/0 средняя, верхняя 
[Ac und|Ci fib]
-7.6 -11.1 76 -9  1026.4  -0.4  758  315           
18 01.03.10 140 (ЮВ) 10 км    10/0 верхняя 
[Cs]
-8.8 -12.6 74 -10  1025.9  -0.7  758  317    -7.4       
21 01.03.10 150 (ЮВ) 10 км    9/0 верхняя 
[Ci fib]
-10 -12.8 80 -12  1025.1  -0.8  757  318           
00 02.03.10 130 (ЮВ) 10 км    3/0 верхняя 
[Ci fib]
-11.2 -14 80 -13  1024.8  -0.4  757  319           
03 02.03.10 130 (ЮВ) 10 км    9/0 верхняя 
[Ci fib]
-11.2 -14 80 -13  1024.1  -0.7  756  319           
06 02.03.10 140 (ЮВ) 10 км    10/0 средняя 
[As op]
-9.8 -12.9 78 -12  1023.6  -0.4  756  317  -11.2         
09 02.03.10 140 (ЮВ) >10 км    9/0 средняя 
[As trans]
-7.7 -11.2 76 -10  1022.6  -0.8  755  314           
12 02.03.10 140 (ЮВ) 3{11}  >10 км    10/0 средняя, верхняя 
[Ac lent|Cs]
-5.3 -11.3 63 -8  1020.8  -1.6  754  311           
15 02.03.10 140 (ЮВ) 4{10}  10 км    9/0 средняя 
[Ac trans]
-5.5 -10.6 67 -9  1020  -0.8  754  311           
18 02.03.10 140 (ЮВ) 10 км    10/0 средняя 
[Ac und]
-6.8 -10.6 74 -9  1019.3  -0.9  753  312    -5.3       
21 02.03.10 140 (ЮВ) 3{11}  10 км    10/0 средняя 
[Ac und]
-7.2 -9.3 85 -10  1018.5  -0.8  752  312           
00 03.03.10 160 (Ю) 4000 м  слаб. снег  10/10 200 м 
[Ns]
-7.2 -8.5 90 -9  1017.8  -0.6  752  312           
03 03.03.10 160 (Ю) 4000 м  слаб. снег  10/10 300 м 
[Ns]
-7 -8.3 90 -10  1016.8  -1  751  311           
06 03.03.10 160 (Ю) 4000 м  слаб. снег  10/10 300 м 
[Ns]
-6.2 -7.7 89 -9  1016.1  -0.6  751  310  -7.3    0.9     
09 03.03.10 160 (Ю) 2000 м  снег  10/10 300 м 
[Ns]
-4.8 -6.1 91 -7  1016  -0.1  751  308           
12 03.03.10 190 (Ю) >10 км  в посл. час снег  10/10 300 м 
[Ns]
-3.2 -5.3 85 -4  1016.2  0.3  751  307           
15 03.03.10 160 (Ю) 10 км    10/10 600 м 
[Sc]
-3.5 -5.3 87 -5  1017  0.8  751  307           
18 03.03.10 160 (Ю) 10 км    10/10 600 м 
[Sc]
-3.4 -5.1 88 -3  1017.8  0.8  752  307    -3     
21 03.03.10 140 (ЮВ) 10 км    10/10 1000 м 
[Sc]
-3.6 -5 90 -3  1017.9  0.1  752  308           
00 04.03.10 140 (ЮВ) 10 км    10/10 300 м 
[St]
-3.6 -4.4 94 -5  1018.5  0.6  752  308           
03 04.03.10 140 (ЮВ) 10 км    10/10 300 м 
[St]
-3.8 -4.6 94 -5  1018.3  -0.2  752  308           
Время (UTC), дата Ветер
(°,м/с) 
Видим.   Явления Облачность Т
(°С)
Тd
(°С)
f(%) Тe
(°С)
Pmin
(гПа)
dP
(гПа)
Po
(мм)
O2
(г/м3)
Тmin Tmax R s Состояние
почвы